Mullan Pass, MT

11:37 PM MDT on April 22, 2017 (GMT -0600)
Mullan Pass

Weather History for KMLP - December, 2012

Change the Weather History Date:

Sunday, December 30, 2012

  Actual Average (K3TH) Record (K3TH)
Temperature  
Mean Temperature 14 °F -  
Max Temperature 15 °F 31 °F 45 °F (1997)
Min Temperature 12 °F 25 °F 25 °F (1999)
Degree Days  
Heating Degree Days 52    
Moisture  
Dew Point 11 °F    
Average Humidity 89    
Maximum Humidity 100    
Minimum Humidity 79    
Precipitation  
Precipitation 0.00 in - - ()
Sea Level Pressure  
Sea Level Pressure 30.07 in    
Wind  
Wind Speed 3 mph (NNW)    
Max Wind Speed 6 mph    
Max Gust Speed -    
Visibility 4 miles    
Events Fog , Snow    
Averages and records for this station are not official NWS values.
T = Trace of Precipitation, MM = Missing Value Source: NWS Daily Summary

Daily Weather History Graph

Daily Weather History Graph

Search for Another Location

Airport or City:

Trip Planner

Search our weather history database for the weather conditions in past years. The results will help you decide how hot, cold, wet, or windy it might be!

Date:

Astronomy

Dec. 30, 2012 Rise Set
Actual Time 7:30 AM PST 4:01 PM PST
Civil Twilight 6:54 AM PST 4:36 PM PST
Nautical Twilight 6:15 AM PST 5:15 PM PST
Astronomical Twilight 5:38 AM PST 5:53 PM PST
Moon 6:48 PM PST (12/30) 8:31 AM PST (12/30)
Length of Visible Light 9h 42m
Length of Day
8h 30m
Waning Gibbous, 95% of the Moon is Illuminated
Dec 30
Waning Gibbous
Jan 4
Last Quarter
Jan 11
New
Jan 18
First Quarter
Jan 26
Full

Hourly Weather History & Observations

Time (PST) Temp. Windchill Dew Point Humidity Pressure Visibility Wind Dir Wind Speed Gust Speed Precip Events Conditions
12:06 AM 12.2 °F 6.1 °F 10.4 °F 92% 29.93 in 2.5 mi North 3.5 mph - N/A   Overcast
12:13 AM 12.2 °F 4.3 °F 10.4 °F 92% 29.93 in 4.0 mi North 4.6 mph - N/A   Overcast
12:18 AM 12.2 °F 4.3 °F 10.4 °F 92% 29.93 in 1.5 mi North 4.6 mph - N/A   Overcast
12:24 AM 12.2 °F 6.1 °F 10.4 °F 92% 29.93 in 0.8 mi North 3.5 mph - N/A   Mist
12:33 AM 12.2 °F 4.3 °F 12.2 °F 100% 29.93 in 1.8 mi North 4.6 mph - 0.00 in Snow Light Snow
12:40 AM 12.2 °F 6.1 °F 12.2 °F 100% 29.93 in 9.0 mi North 3.5 mph - 0.00 in Snow Light Snow
12:53 AM 12.9 °F 5.2 °F 10.9 °F 92% 30.14 in 10.0 mi North 4.6 mph - 0.00 in   Overcast
1:01 AM 12.2 °F 6.1 °F 12.2 °F 100% 29.93 in 10.0 mi North 3.5 mph - N/A   Overcast
1:53 AM 14.0 °F - 12.0 °F 92% 30.15 in 10.0 mi Calm Calm - N/A   Overcast
2:53 AM 12.9 °F - 12.0 °F 96% 30.17 in 10.0 mi Calm Calm - N/A   Overcast
3:53 AM 12.9 °F - 10.9 °F 92% 30.19 in 10.0 mi Calm Calm - N/A   Overcast
4:53 AM 12.9 °F - 10.9 °F 92% 30.18 in 6.0 mi Calm Calm - N/A   Overcast
5:53 AM 12.9 °F 6.9 °F 10.9 °F 92% 30.19 in 10.0 mi NNW 3.5 mph - N/A   Overcast
6:53 AM 12.9 °F - 10.9 °F 92% 30.19 in 10.0 mi Calm Calm - N/A   Overcast
7:46 AM 12.2 °F 6.1 °F 10.4 °F 92% 29.98 in 9.0 mi Variable 3.5 mph - N/A   Overcast
7:53 AM 12.9 °F - 10.9 °F 92% 30.21 in 7.0 mi Calm Calm - N/A   Overcast
8:46 AM 12.2 °F 4.3 °F 12.2 °F 100% 30.00 in 1.5 mi Variable 4.6 mph - N/A   Overcast
8:51 AM 12.2 °F - 12.2 °F 100% 29.99 in 1.0 mi Calm Calm - 0.00 in Snow Light Snow
8:53 AM 12.9 °F 6.9 °F 12.0 °F 96% 30.23 in 1.0 mi Variable 3.5 mph - 0.00 in Snow Light Snow
9:02 AM 14.0 °F 6.5 °F 12.2 °F 93% 30.00 in 1.5 mi WNW 4.6 mph - 0.00 in   Overcast
9:21 AM 14.0 °F 5.1 °F 12.2 °F 93% 30.01 in 1.0 mi NW 5.8 mph - 0.00 in Snow Light Snow
9:40 AM 14.0 °F - 12.2 °F 93% 30.01 in 0.8 mi Calm Calm - 0.00 in Snow Light Snow
9:53 AM 14.0 °F 8.2 °F 12.0 °F 92% 30.25 in 0.8 mi Variable 3.5 mph - 0.00 in Snow Light Snow
10:00 AM 14.0 °F 6.5 °F 12.2 °F 93% 30.01 in 1.2 mi Variable 4.6 mph - 0.00 in Snow Light Snow
10:05 AM 14.0 °F - 12.2 °F 93% 30.00 in 2.5 mi Calm Calm - 0.00 in Snow Light Snow
10:13 AM 14.0 °F 8.2 °F 12.2 °F 93% 30.01 in 4.0 mi Variable 3.5 mph - 0.00 in Snow Light Snow
10:32 AM 14.0 °F 8.2 °F 12.2 °F 93% 30.01 in 2.0 mi Variable 3.5 mph - 0.00 in Snow Light Snow
10:53 AM 15.1 °F - 12.9 °F 91% 30.23 in 2.5 mi Calm Calm - 0.00 in Snow Light Snow
10:55 AM 15.8 °F 7.2 °F 12.2 °F 86% 30.00 in 1.2 mi Variable 5.8 mph - 0.00 in Snow Light Snow
11:06 AM 14.0 °F 6.5 °F 12.2 °F 93% 29.99 in 2.5 mi Variable 4.6 mph - 0.00 in Snow Light Snow
11:13 AM 14.0 °F 5.1 °F 12.2 °F 93% 30.00 in 5.0 mi Variable 5.8 mph - 0.00 in Snow Light Snow
11:53 AM 15.1 °F - 12.9 °F 91% 30.24 in 3.0 mi Calm Calm - 0.00 in Snow Light Snow
12:53 PM 15.1 °F 9.4 °F 12.0 °F 88% 30.23 in 5.0 mi Variable 3.5 mph - 0.00 in Snow Light Snow
1:53 PM 15.1 °F 7.7 °F 12.0 °F 88% 30.22 in 4.0 mi Variable 4.6 mph - 0.00 in Snow Light Snow
2:06 PM 15.8 °F 8.6 °F 12.2 °F 86% 30.00 in 2.0 mi Variable 4.6 mph - 0.00 in Snow Light Snow
2:16 PM 15.8 °F 8.6 °F 12.2 °F 86% 30.00 in 6.0 mi Variable 4.6 mph - 0.00 in Snow Light Snow
2:24 PM 15.8 °F - 12.2 °F 86% 30.00 in 1.8 mi Calm Calm - 0.00 in Snow Light Snow
2:29 PM 15.8 °F - 12.2 °F 86% 30.00 in 0.8 mi Calm Calm - 0.00 in Snow Light Snow
2:39 PM 15.8 °F 10.2 °F 12.2 °F 86% 30.00 in 0.2 mi Variable 3.5 mph - 0.00 in Fog , Snow Light Snow
2:53 PM 15.1 °F 9.4 °F 12.0 °F 88% 30.24 in 2.0 mi Variable 3.5 mph - 0.00 in Snow Light Snow
3:13 PM 15.8 °F 8.6 °F 12.2 °F 86% 30.01 in 1.2 mi Variable 4.6 mph - 0.00 in Snow Light Snow
3:25 PM 14.0 °F 6.5 °F 12.2 °F 93% 30.01 in 2.0 mi Variable 4.6 mph - 0.00 in Snow Light Snow
3:32 PM 15.8 °F 8.6 °F 12.2 °F 86% 30.01 in 5.0 mi Variable 4.6 mph - 0.00 in Snow Light Snow
3:53 PM 15.1 °F - 12.0 °F 88% 30.25 in 2.5 mi Calm Calm - 0.00 in Snow Light Snow
4:13 PM 14.0 °F 5.1 °F 10.4 °F 86% 30.01 in 4.0 mi NW 5.8 mph - 0.00 in   Overcast
4:53 PM 14.0 °F 6.5 °F 10.9 °F 88% 30.25 in 2.0 mi Variable 4.6 mph - 0.00 in Snow Light Snow
4:55 PM 14.0 °F 6.5 °F 12.2 °F 93% 30.02 in 1.2 mi NW 4.6 mph - 0.00 in Snow Light Snow
4:59 PM 14.0 °F 5.1 °F 10.4 °F 86% 30.02 in 0.8 mi Variable 5.8 mph - 0.00 in Snow Light Snow
5:26 PM 14.0 °F 6.5 °F 10.4 °F 86% 30.02 in 1.5 mi Variable 4.6 mph - 0.00 in Snow Light Snow
5:53 PM 14.0 °F 6.5 °F 10.9 °F 88% 30.25 in 1.5 mi NNW 4.6 mph - 0.00 in Snow Light Snow
6:33 PM 14.0 °F 8.2 °F 10.4 °F 86% 30.02 in 2.0 mi Variable 3.5 mph - 0.00 in   Overcast
6:44 PM 14.0 °F 8.2 °F 10.4 °F 86% 30.02 in 1.5 mi Variable 3.5 mph - 0.00 in Snow Light Snow
6:53 PM 14.0 °F 6.5 °F 10.9 °F 88% 30.25 in 1.5 mi Variable 4.6 mph - 0.00 in Snow Light Snow
6:55 PM 14.0 °F 8.2 °F 10.4 °F 86% 30.02 in 1.0 mi Variable 3.5 mph - 0.00 in Snow Light Snow
6:58 PM 14.0 °F - 10.4 °F 86% 30.02 in 0.8 mi Calm Calm - 0.00 in Snow Light Snow
7:13 PM 15.8 °F - 10.4 °F 79% 30.02 in 1.0 mi Calm Calm - 0.00 in Snow Light Snow
7:26 PM 15.8 °F - 10.4 °F 79% 30.02 in 0.5 mi Calm Calm - 0.00 in Fog , Snow Light Snow
7:45 PM 15.8 °F - 10.4 °F 79% 30.02 in 1.0 mi Calm Calm - 0.00 in Snow Light Snow
7:53 PM 15.1 °F - 10.9 °F 84% 30.26 in 1.0 mi Calm Calm - 0.00 in Snow Light Snow
8:53 PM 14.0 °F 5.1 °F 10.0 °F 84% 30.25 in 1.0 mi Variable 5.8 mph - 0.00 in Snow Light Snow
9:08 PM 14.0 °F 8.2 °F 10.4 °F 86% 30.02 in 2.0 mi Variable 3.5 mph - 0.00 in Snow Light Snow
9:10 PM 14.0 °F 8.2 °F 10.4 °F 86% 30.02 in 1.2 mi Variable 3.5 mph - 0.00 in   Overcast
9:21 PM 15.8 °F 10.2 °F 10.4 °F 79% 30.02 in 2.0 mi Variable 3.5 mph - 0.00 in Snow Light Snow
9:29 PM 15.8 °F 8.6 °F 10.4 °F 79% 30.01 in 3.0 mi Variable 4.6 mph - 0.00 in Snow Light Snow
9:53 PM 15.1 °F 9.4 °F 10.0 °F 80% 30.24 in 10.0 mi Variable 3.5 mph - 0.00 in   Overcast
10:08 PM 15.8 °F 7.2 °F 10.4 °F 79% 30.02 in 10.0 mi NW 5.8 mph - N/A   Overcast
10:15 PM 14.0 °F 8.2 °F 10.4 °F 86% 30.02 in 10.0 mi Variable 3.5 mph - N/A   Overcast
10:22 PM 14.0 °F 6.5 °F 10.4 °F 86% 30.02 in 10.0 mi NW 4.6 mph - N/A   Overcast
10:53 PM 14.0 °F 8.2 °F 10.0 °F 84% 30.25 in 8.0 mi Variable 3.5 mph - N/A   Overcast
11:19 PM 14.0 °F 6.5 °F 10.4 °F 86% 30.02 in 2.0 mi Variable 4.6 mph - N/A   Overcast
11:21 PM 14.0 °F 6.5 °F 10.4 °F 86% 30.02 in 1.2 mi Variable 4.6 mph - N/A   Overcast
11:35 PM 14.0 °F 8.2 °F 10.4 °F 86% 30.02 in 2.0 mi Variable 3.5 mph - N/A   Overcast
11:44 PM 14.0 °F 6.5 °F 10.4 °F 86% 30.02 in 1.2 mi NNW 4.6 mph - N/A   Overcast
11:50 PM 14.0 °F 6.5 °F 10.4 °F 86% 30.02 in 0.8 mi NNW 4.6 mph - N/A   Mist
11:53 PM 14.0 °F - 10.9 °F 88% 30.24 in 0.8 mi Calm Calm - N/A   Mist